Погода в Мбабане

Эсватини     26˚19′35″S   31˚08′38″E
темп.,
°C
ветер,
м/с
пор.,
м/с
влажн.,
%
обл.,
%
осадки,
мм/ч
давл.,
гПа
погр.,
м
6 декабря, вс
вс623:00+14˚ссз1296100 0.0 102025
02:00+14˚сз129677 0.0 101936
05:00+13˚зсз129438 0.0 101828
08:00+20˚с236821 0.0 1018542
11:00+27˚св34460 0.0 10161435
14:00+27˚св55470 0.0 10121427
17:00+24˚св485833 0.3 1011638
20:00+20˚св277343 0.6 1014285
7 декабря, пн
пн723:00+18˚с228573 0.8 101759
02:00+17˚ююв119886 2.9 101765
05:00+16˚ююз119790 0.3 101876
08:00+21˚св127781 0.3 1018575
11:00+25˚всв555766 0.2 10171299
14:00+25˚св575967 2.7 10151551
17:00+22˚всв487161 2.8 10161074
20:00+18˚св379681 7.1 1019561
8 декабря, вт
вт823:00+17˚с2696100 1.5 1021372
02:00+16˚в1195100 1.5 1020109
05:00+15˚с119699 0.0 102027
08:00+19˚св228692 0.0 1020403
11:00+21˚ссв367499 0.3 1018788
14:00+24˚ссв685782 0.4 10151547
17:00+24˚ссв695128 0.0 10131383
20:00+17˚св229114 0.0 101636
9 декабря, ср
ср923:00+16˚ссз1299100 0.0 101671
02:00+16˚ссз129698 0.0 101578
05:00+15˚сз239470 0.0 101553
08:00+22˚ссв246136 0.0 1013610
11:00+29˚ссв34415 0.0 10101512
14:00+26˚в345421 0.1 1006447
17:00+27˚с474854 0.0 1006884
20:00+23˚ссв3106347 0.0 1008422
10 декабря, чт
чт1023:00+19˚сз127820 0.0 101026
02:00+20˚сз227528 0.0 100932
05:00+18˚з118352 0.0 101023
08:00+25˚всв115933 0.0 1010469
11:00+29˚всв444967 0.0 10081123
14:00+24˚з457483 5.6 1005604
17:00+23˚ссз398291 6.4 1006649
20:00+19˚св399685 8.9 1010397